Location: Stigler
(35.2540°N, 95.1230°W)
Time: 06:48:59
(UTC-05:00)

Daily predictions for brighter satellites

Satellite Brightness Start Highest point End
(mag) Time Altitude Azimuth Time Altitude Azimuth Time Altitude Azimuth
Cosmos 2322 3.7 20:14:10 10° SSW 20:19:48 79° ESE 20:25:29 10° NNE
Cosmos 1939 Rocket 4.5 20:17:30 10° ESE 20:20:02 17° ENE 20:22:34 10° NNE
SJ-6B 3.4 20:16:56 10° SE 20:20:45 40° ENE 20:24:30 10° N
Cosmos 2058 4.5 20:20:11 10° NNW 20:24:09 41° W 20:28:06 10° SSW
Envisat 3.3 20:19:23 10° SE 20:24:12 46° ENE 20:29:03 10° N
Cosmos 44 3.8 20:21:00 10° SW 20:25:20 60° WNW 20:29:57 10° NNE
Cosmos 1269 Rocket 4.3 20:27:02 10° NNW 20:32:20 75° WSW 20:37:37 10° S
Cosmos 1633 Rocket 4.5 20:29:33 10° NNE 20:32:44 20° ENE 20:35:51 10° ESE
Cosmos 1437 2.7 20:32:39 10° S 20:35:49 88° W 20:39:01 10° N
Cosmos 2221 3.3 20:39:13 10° SSW 20:43:23 56° W 20:47:35 10° N
Cosmos 1346 Rocket 4.3 20:40:08 10° SSW 20:44:00 42° WNW 20:47:54 10° N
Cosmos 44 Rocket 3.8 20:39:25 10° SW 20:44:04 62° WNW 20:48:53 10° NNE
Thor Agena Rocket 3.5 20:41:52 10° NNE 20:47:06 70° ESE 20:52:21 10° S
Cosmos 2154 Rocket 4.1 20:41:04 10° S 20:47:10 57° E 20:53:16 10° NNE
Cosmos 1300 3.8 20:43:45 10° SSW 20:47:26 48° W 20:51:09 10° N
Cosmos 2184 Rocket 4.3 20:44:46 10° SSW 20:50:55 72° W 20:57:04 10° N
Meteor 2-2 Rocket 4.4 20:47:51 10° S 20:53:31 58° E 20:59:19 10° NNE
Cosmos 1980 4.5 20:51:23 10° SSE 20:56:11 29° ESE 21:00:59 10° NE
Cosmos 2360 Rocket 4.0 20:51:08 10° SW 20:56:15 36° WNW 21:01:25 10° N
Resurs 01 Rocket 2.0 20:52:33 12° SE 20:56:19 43° ENE 21:00:32 10° N
Cosmos 1805 Rocket 3.4 20:52:04 10° N 20:56:25 80° E 21:00:44 10° S
GPS 2-05 Rocket1 3.6 20:53:30 10° W 20:56:42 39° SSW 20:58:35 20° SE
ATLAS 3B CENTAUR R/B 4.3 20:43:18 10° W 20:57:20 35° SW 21:03:20 11° SSE
Sakura Rocket 4.1 20:54:31 10° SW 20:58:20 26° S 20:59:59 19° SE
CZ-2D R/B 3.7 20:56:24 10° S 21:00:09 61° W 21:03:56 10° NNW
Cosmos 1328 Rocket 4.1 20:56:22 10° SSE 21:00:25 37° E 21:04:30 10° NNE
Cosmos 2333 Rocket 2.2 20:56:45 10° S 21:02:16 56° ESE 21:07:48 10° NNE
NOSS 2-1 (C) 4.2 21:01:28 10° SW 21:04:57 48° NW 21:08:40 10° NNE
NOSS 2-1 (D) 4.3 21:02:27 10° SW 21:05:57 45° NW 21:09:38 10° NNE
Spot 2 Rocket 3.9 21:03:43 17° SE 21:07:19 46° ENE 21:12:09 10° N
Cosmos 2341 Rocket 4.1 21:01:15 10° SSE 21:07:26 56° E 21:13:37 10° NNE
COSMOS 2428 3.0 21:01:47 10° SSW 21:07:30 74° WNW 21:13:14 10° NNE
Cosmos 1455 2.2 21:07:59 10° S 21:11:43 56° E 21:15:29 10° NNE
Cosmos 1470 Rocket 4.5 21:10:07 10° NNE 21:13:57 29° ENE 21:14:52 27° E
ATLAS 2AS CENTAUR R/B 3.6 21:06:47 10° NNW 21:14:07 40° NE 21:18:17 22° ESE
Meteor 2-15 4.4 21:08:11 10° N 21:14:21 90° ESE 21:20:26 10° S
SJ-11-01 4.3 21:11:43 19° SSE 21:14:55 60° ENE 21:19:31 10° N
Cosmos 962 Rocket 4.4 21:09:47 10° S 21:15:50 68° E 21:21:56 10° NNE
ERS-2 3.1 21:14:22 10° S 21:17:54 47° W 21:21:28 10° NNW
Cosmos 1844 Rocket 2.6 21:13:11 10° NNW 21:18:53 81° ENE 21:22:47 21° SSE
Cosmos 1844 3.8 21:13:33 10° NNW 21:19:12 62° ENE 21:22:30 25° SE
ATLAS 2A CENTAUR R/B 4.4 21:02:03 10° SW 21:19:28 35° SSE 21:24:55 23° SE
Cosmos 1892 2.6 21:16:43 10° N 21:20:37 81° E 21:22:50 24° S
Cosmos 2237 Rocket 2.3 21:18:39 10° S 21:23:59 47° ESE 21:29:21 10° NNE
Cosmos 2219 Rocket 2.3 21:19:16 10° SSW 21:24:55 77° WNW 21:30:36 10° NNE
Cosmos 1408 4.0 21:22:55 10° NNE 21:25:16 23° ENE 21:25:16 23° ENE
ATLAS CENTAUR R/B 0.9 21:23:20 10° SSW 21:26:57 87° ESE 21:30:43 10° NNE
Cosmos 1295 Rocket 4.4 21:20:54 10° S 21:27:13 79° E 21:33:34 10° N
USA 186 2.8 21:27:34 23° SW 21:28:09 26° W 21:30:08 10° NW
Cosmos 2366 rocket 4.4 21:27:19 28° SE 21:29:48 39° E 21:35:32 10° NNE
NOSS 0 Rocket 3.8 21:27:38 10° SSW 21:33:47 76° ESE 21:39:58 10° NNE
Resurs 1-3 4.0 21:31:17 17° S 21:34:34 63° WSW 21:38:56 10° NNW
Genesis I 4.4 21:32:17 10° N 21:35:51 29° NE 21:35:57 29° ENE
Cosmos 2278 Rocket 2.9 21:30:56 10° N 21:36:07 35° ENE 21:37:23 32° E
Cosmos 1666 Rocket 4.2 21:32:21 10° NNW 21:36:45 57° W 21:40:15 15° S
NOAA 11 4.1 21:35:17 27° SSE 21:38:22 79° ENE 21:43:53 10° N
YAOGAN 6 4.0 21:36:12 14° SSW 21:38:51 36° W 21:42:13 10° NNW
H-2A R/B 3.0 21:39:07 27° ENE 21:39:16 27° ENE 21:43:27 10° NNE
SL-8 Rocket 3.9 21:34:29 14° S 21:39:58 67° E 21:46:12 10° NNE
Timation 1 Rocket 4.3 21:35:58 10° NNW 21:41:57 81° WSW 21:45:06 30° SSE
OAO 2 Rocket 3.3 21:37:26 10° W 21:42:37 74° SSW 21:43:55 49° ESE
Cosmos 1933 Rocket 3.7 21:38:34 10° N 21:42:51 51° E 21:42:57 51° E
ERS-1 Rocket 3.9 21:50:18 31° ENE 21:50:18 31° ENE 21:54:29 10° N
Cosmos 1371 Rocket 4.1 21:50:10 51° SE 21:50:49 54° ESE 21:56:02 10° NNE
Cosmos 1151 Rocket 3.0 21:50:12 39° SSW 21:51:42 81° W 21:55:59 10° N
Cosmos 220 Rocket 3.8 21:51:22 10° NNW 21:55:43 88° ENE 21:55:55 81° SSE
USA 267 3.2 21:52:42 10° NE 21:59:09 61° SE 22:05:35 10° SSW
OAO 1 4.4 21:54:35 10° W 22:00:04 71° SSW 22:00:48 62° SE
Cosmos 1825 3.0 22:00:38 10° N 22:03:17 43° N 22:03:17 43° N
Cosmos 2344 4.3 22:10:53 33° E 22:10:53 33° E 22:15:53 10° NE
Cosmos 1869 4.1 22:10:13 47° N 22:10:13 47° N 22:13:10 10° N
Cosmos 2098 Rocket 3.2 22:11:35 78° NNE 22:11:35 78° NNE 22:15:31 10° N
Cosmos 2228 Rocket 4.1 22:09:26 24° SW 22:11:43 43° W 22:15:55 10° N
Cosmos 864 Rocket 4.3 22:10:21 44° S 22:12:26 86° E 22:18:35 10° N
Cosmos 2056 Rocket 3.6 22:13:06 64° ENE 22:13:06 64° ENE 22:17:55 10° NNE
SL-16 R/B 3.3 22:15:04 30° NE 22:15:04 30° NE 22:18:03 10° NNE
SL-8 R/B 4.4 22:13:08 10° WSW 22:17:48 52° NNW 22:19:41 32° NNE
ARGOS 3.1 22:26:04 77° SW 22:26:14 78° WSW 22:31:37 10° NNW
SL-08 RB Rocket 4.4 22:31:04 48° NNW 22:31:04 48° NNW 22:34:20 10° NNW
Cosmos 1624 Rocket 4.1 22:30:20 71° NNW 22:30:20 71° NNW 22:35:10 10° NNE
GEOS 3 Rocket 4.1 22:26:39 10° NNE 22:31:55 61° NW 22:37:04 10° SW
Resurs 01 Rocket 4.3 22:30:38 10° SW 22:32:58 14° W 22:35:19 10° WNW
MetOp-B 4.2 22:33:14 75° WNW 22:33:14 75° WNW 22:38:25 10° NNW
Cosmos 2297 4.5 22:40:43 10° N 22:44:55 43° NNE 22:44:55 43° NNE
Cosmos 1727 Rocket 4.0 22:43:37 10° N 22:49:42 71° W 22:49:42 71° W
Terra 3.9 23:00:47 21° NNE 23:00:47 21° NNE 23:02:30 10° N
ATLAS 2AS CENTAUR R/B 3.6 22:57:58 10° NW 23:05:04 42° WSW 23:05:45 41° SW
Cosmos 2237 Rocket 4.4 23:04:03 10° WSW 23:08:15 21° WNW 23:12:30 10° N
H-2A R/B 3.8 23:19:45 26° WNW 23:19:45 26° WNW 23:22:56 10° NW
Cosmos 2278 Rocket 3.9 23:15:18 10° NW 23:19:15 26° W 23:19:15 26° W
ATLAS 5 CENTAUR R/B 4.4 23:28:07 10° N 23:31:11 17° NNE 23:31:11 17° NNE
NOSS 3-4 (A) 4.2 23:28:27 10° NNW 23:34:10 60° NW 23:34:10 60° NW
NOSS 3-4 (C) 4.2 23:28:33 10° NNW 23:34:16 60° NW 23:34:16 60° NW
USA 267 4.5 23:36:01 10° NNE 23:41:53 37° NW 23:47:46 10° W
BREEZE-M DEB (TANK) 4.5 23:23:02 10° WNW 23:44:23 63° NNE 23:44:23 63° NNE
